Terminal Aerodrome Forecast
Issued by NWS

Home | Current Version | Previous Version | Text Only | Print | Product List | Glossary On
Versions: 1 2 3 4 5 6 7 8 9 10 11 12
377
FTUS42 TJSJ 091120
TAFJPS
TAF
TJPS 091120Z 0912/1012 00000KT P6SM FEW030
     FM091300 13010G18KT P6SM VCSH SCT030 SCT060
     FM092330 09007KT P6SM FEW030
      AMD NOT SKED TIL 100300=

USA.gov is the U.S. government's official web portal to all federal, state and local government web resources and services.